Minneapolis Flying Cloud, MN

8:46 PM CST on November 12, 2019 (GMT -0600)
Flying Cloud

Weather History for KFCM - September, 2019

Change the Weather History Date:

Sunday, September 8, 2019

  Actual Average Record
Temperature  
Mean Temperature 58 °F -  
Max Temperature 61 °F 76 °F 93 °F (2002)
Min Temperature 55 °F 55 °F 44 °F (2010)
Degree Days  
Heating Degree Days 8    
Growing Degree Days 8 (Base 50)    
Moisture  
Dew Point 53 °F    
Average Humidity 82    
Maximum Humidity 90    
Minimum Humidity 77    
Precipitation  
Precipitation 0.13 in - - ()
Sea Level Pressure  
Sea Level Pressure 30.11 in    
Wind  
Wind Speed 9 mph (East)    
Max Wind Speed 14 mph    
Max Gust Speed 22 mph    
Visibility 10 miles    
Events Rain    
Averages and records for this station are not official NWS values.
T = Trace of Precipitation, MM = Missing Value Source: NWS Daily Summary

Daily Weather History Graph

Daily Weather History Graph

Search for Another Location

Airport or City:

Astronomy

Sep. 08, 2019 Rise Set
Actual Time 6:44 AM CDT 7:38 PM CDT
Civil Twilight 6:14 AM CDT 8:07 PM CDT
Nautical Twilight 5:38 AM CDT 8:43 PM CDT
Astronomical Twilight 5:01 AM CDT 9:20 PM CDT
Moon 5:00 PM CDT (9/8) 1:11 AM CDT (9/8)
Length of Visible Light 13h 53m
Length of Day
12h 54m
Waxing Gibbous, 75% of the Moon is Illuminated
Sep 8
Waxing Gibbous
Sep 13
Full
Sep 21
Last Quarter
Sep 28
New
Oct 5
First Quarter

Hourly Weather History & Observations

Time (CDT) Temp. Dew Point Humidity Pressure Visibility Wind Dir Wind Speed Gust Speed Precip Events Conditions
12:53 AM 57.0 °F 51.1 °F 81% 30.08 in 10.0 mi NE 9.2 mph - 0.00 in   Overcast
1:53 AM 57.0 °F 51.1 °F 81% 30.12 in 10.0 mi ENE 5.8 mph - N/A   Overcast
2:53 AM 55.9 °F 51.1 °F 84% 30.11 in 10.0 mi NE 6.9 mph - 0.00 in   Overcast
3:53 AM 55.0 °F 51.1 °F 86% 30.09 in 10.0 mi ENE 8.1 mph - 0.00 in Rain Light Rain
4:53 AM 55.0 °F 50.0 °F 83% 30.09 in 10.0 mi ENE 9.2 mph - 0.00 in   Overcast
5:53 AM 55.0 °F 50.0 °F 83% 30.10 in 10.0 mi NE 6.9 mph - N/A   Overcast
6:53 AM 55.0 °F 48.9 °F 80% 30.11 in 10.0 mi ENE 9.2 mph - N/A   Overcast
7:53 AM 55.0 °F 48.9 °F 80% 30.11 in 10.0 mi ENE 8.1 mph - 0.00 in   Overcast
8:53 AM 55.0 °F 48.9 °F 80% 30.13 in 10.0 mi East 9.2 mph - N/A   Overcast
9:53 AM 55.0 °F 50.0 °F 83% 30.14 in 10.0 mi East 8.1 mph - 0.01 in Rain Light Rain
10:53 AM 55.0 °F 51.1 °F 86% 30.14 in 9.0 mi East 6.9 mph - 0.03 in Rain Light Rain
11:53 AM 55.9 °F 52.0 °F 87% 30.13 in 10.0 mi ENE 6.9 mph - 0.08 in Rain Light Rain
12:03 PM 55.9 °F 53.1 °F 90% 30.13 in 10.0 mi ENE 9.2 mph - 0.00 in Rain Light Rain
12:28 PM 57.0 °F 54.0 °F 89% 30.12 in 10.0 mi ENE 6.9 mph - 0.00 in   Overcast
12:53 PM 57.0 °F 53.1 °F 87% 30.13 in 10.0 mi East 8.1 mph - 0.00 in Rain Light Rain
1:00 PM 57.9 °F 53.1 °F 84% 30.13 in 10.0 mi East 8.1 mph - 0.00 in Rain Light Rain
1:53 PM 57.9 °F 53.1 °F 84% 30.12 in 10.0 mi East 9.2 mph - 0.01 in Rain Light Rain
2:53 PM 59.0 °F 54.0 °F 83% 30.11 in 10.0 mi East 11.5 mph - 0.00 in   Mostly Cloudy
3:04 PM 59.0 °F 54.0 °F 83% 30.10 in 10.0 mi ENE 8.1 mph - 0.00 in Rain Light Rain
3:51 PM 60.8 °F 53.6 °F 77% 30.10 in 10.0 mi East 11.5 mph - 0.00 in   Overcast
3:53 PM 60.1 °F 54.0 °F 80% 30.11 in 10.0 mi East 10.4 mph - 0.00 in   Overcast
4:53 PM 60.1 °F 53.1 °F 78% 30.10 in 10.0 mi East 10.4 mph - N/A   Overcast
5:03 PM 60.1 °F 54.0 °F 80% 30.09 in 10.0 mi East 10.4 mph - N/A   Overcast
5:15 PM 60.1 °F 54.0 °F 80% 30.10 in 10.0 mi East 9.2 mph - N/A   Overcast
5:22 PM 60.1 °F 54.0 °F 80% 30.10 in 10.0 mi East 6.9 mph - N/A   Overcast
5:31 PM 60.1 °F 54.0 °F 80% 30.10 in 10.0 mi East 8.1 mph - N/A   Overcast
5:53 PM 60.1 °F 54.0 °F 80% 30.11 in 10.0 mi East 9.2 mph - N/A   Overcast
6:12 PM 60.1 °F 54.0 °F 80% 30.11 in 10.0 mi East 8.1 mph - N/A   Overcast
6:44 PM 60.1 °F 54.0 °F 80% 30.11 in 10.0 mi East 8.1 mph - N/A   Overcast
6:53 PM 60.1 °F 53.1 °F 78% 30.11 in 10.0 mi East 12.7 mph - N/A   Overcast
7:03 PM 60.1 °F 53.1 °F 78% 30.11 in 10.0 mi East 9.2 mph - N/A   Overcast
7:35 PM 59.0 °F 53.1 °F 81% 30.11 in 10.0 mi East 9.2 mph - N/A   Overcast
7:53 PM 59.0 °F 53.1 °F 81% 30.12 in 10.0 mi East 10.4 mph - N/A   Overcast
8:53 PM 59.0 °F 53.1 °F 81% 30.12 in 10.0 mi East 12.7 mph 21.9 mph N/A   Overcast
9:53 PM 59.0 °F 53.1 °F 81% 30.11 in 10.0 mi East 11.5 mph - N/A   Overcast
10:31 PM 59.0 °F 53.1 °F 81% 30.11 in 10.0 mi East 13.8 mph - N/A   Overcast
10:53 PM 59.0 °F 53.1 °F 81% 30.13 in 10.0 mi ESE 9.2 mph - N/A   Overcast
11:08 PM 59.0 °F 53.1 °F 81% 30.12 in 10.0 mi ESE 13.8 mph - N/A   Overcast
11:53 PM 57.9 °F 53.1 °F 84% 30.13 in 10.0 mi ESE 9.2 mph - N/A   Overcast